Regional Weather Roundup
Issued by NWS

Home | Current Version | Previous Version | Text Only | Print | Product List | Glossary On
Versions: 1 2 3 4 5 6 7 8 9 10 11 12 13 14 15 16 17 18 19 20 21 22 23 24 25 26 27 28 29 30 31 32 33 34 35 36 37 38 39 40 41 42 43 44 45 46 47 48 49 50
000
ASUS44 KEWX 250903
RWRTX
SOUTH TEXAS REGIONAL WEATHER ROUNDUP
NATIONAL WEATHER SERVICE AUSTIN/SAN ANTONIO TX
300 AM CST SAT FEB 25 2017

NOTE: "FAIR" INDICATED FEW OR NO CLOUDS BELOW 12,000 FEET WITH NO
SIGNIFICANT WEATHER AND/OR OBSTRUCTIONS TO VISIBILITY.

* - THESE STATIONS ARE NOT NWS OR FAA STATIONS...AND ARE NOT SUBJECT
    TO NWS AND FAA QUALITY CONTROL.

TXZ171-172-183>190-251000-
TEXAS HILL COUNTRY AND EDWARDS PLATEAU

CITY           SKY/WX    TMP DP  RH WIND       PRES   REMARKS
JUNCTION       PTCLDY    40  33  76 CALM      30.08R
*LLANO         PTCLDY    46  32  57 CALM      30.12R
BURNET         PTCLDY    46  30  53 NE12G18   30.09R WCI  41
*HORSESHOE BAY PTCLDY    46  32  57 NE3       30.09R
*KERRVILLE     CLEAR     46  32  58 CALM      30.05S
*FREDERICKSBRG PTCLDY    43  31  60 NE5       30.07S WCI  41
*ROCKSPRINGS   PTCLDY    46  32  57 E7        30.06R WCI  43
*BOERNE STAGE  CLEAR     46  32  57 N5        30.06S WCI  44
*CASTROVILLE   CLEAR     52  32  46 NE12G18   30.05R
HONDO          CLEAR     46  35  65 N9        30.03R WCI  41
*UVALDE        CLEAR     46  34  63 CALM      30.03S
DEL RIO        CLEAR     50  31  48 CALM      30.03R
LAUGHLIN AFB   CLEAR     45  33  61 W3        30.03R
CARRIZO SPRGS  CLEAR     52  32  46 E7        30.00F
*EAGLE PASS    SUNNY     46  32  57 CALM      30.03R
$$

TXZ173-191>194-202-209-217>225-228-251000-
CENTRAL AND SOUTH CENTRAL TEXAS

CITY           SKY/WX    TMP DP  RH WIND       PRES   REMARKS
GEORGETOWN     CLEAR     45  30  57 N9        30.09R WCI  40
AUSTIN/BERGSTM CLEAR     49  33  54 N13       30.07R WCI  44
AUSTIN/MABRY   CLEAR     51  31  46 VRB6      30.07S
*AUSTIN/EXEC   CLEAR     48  32  53 N16       30.07S WCI  42
*LAGO VISTA    CLEAR     47  32  56 NE14G22   30.06R WCI  41
SAN MARCOS     CLEAR     50  30  46 N20       30.05F WCI  44
NEW BRAUNFELS  CLEAR     49  33  54 NE10      30.03R WCI  45
RANDOLPH AFB   CLEAR     50  31  47 N12       30.04R WCI  46
PT SAN ANTONIO CLEAR     53  34  48 NE10      30.01S
SAN ANTONIO    CLEAR     51  33  50 N12       30.04R
STINSON FIELD  CLEAR     54  33  45 NE12      30.02R
*PLEASANTON    CLEAR     52  36  53 N9        30.03R
*LA GRANGE     CLEAR     52  37  57 N8        30.02S
*GIDDINGS      CLEAR    N/A N/A N/A N6        30.05R
*GONZALES      CLEAR     49  37  64 N5        30.04S WCI  47
$$

TXZ163>164-176>182-195>201-210>213-226-227-235-251000-
SOUTHEAST TEXAS

CITY           SKY/WX    TMP DP  RH WIND       PRES   REMARKS
COLLEGE STN    CLEAR     49  34  56 N14       30.04S WCI  44
*BRYAN         CLEAR     46  35  65 N8        30.07S WCI  41
*CALDWELL      NOT AVBL
*CROCKETT      CLEAR     46  32  57 N5        30.08S WCI  44
*BRENHAM       CLEAR     46  38  73 N3        30.04F
HUNTSVILLE     CLEAR     49  33  54 N6        30.04R WCI  46
CONROE         CLEAR     51  34  52 NE3       30.02R
HOUSTON BUSH   CLEAR     52  37  56 N7        30.02R
HOUSTON HOBBY  CLEAR     54  38  54 N9        30.01R
*HOUSTON SW AP CLEAR     53  37  54 N5        30.02R
PEARLAND       CLEAR     57  36  45 N8        30.02R
HOUSTON HOOKS  CLEAR     52  35  52 N6        30.02R
ELLINGTON FLD  CLEAR     54  37  54 N6        29.99S
SUGAR LAND     CLEAR     51  38  60 N9        30.01R
*HOUSTON EXEC  CLEAR     45  39  81 N8        30.04R WCI  40
*CLEVELAND MUN CLEAR     51  37  60 N6        30.03R
*WHARTON       PTCLDY    51  38  60 N9        30.01S
*COLUMBUS      FAIR      52  33  48 N9G16     30.03S
*EAGLE LAKE    SUNNY     51  42  72 NE7       30.02S
$$

TXZ214>216-236>238-251000-
THE UPPER TEXAS COAST

CITY           SKY/WX    TMP DP  RH WIND       PRES   REMARKS
*ORANGE        CLEAR     54  39  56 N5        29.99S
PORT ARTHUR    CLEAR     53  38  56 N9        29.98R
GALVESTON      CLEAR     60  41  49 N24G30    30.00R
ANGLETON       CLEAR     50  41  71 N9        29.99F WCI  46
*BAY CITY      PTCLDY    52  43  71 N6        29.98F
PALACIOS       PTCLDY    52  42  69 N10       29.97F
$$

TXZ229>234-239>247-251000-
TEXAS COASTAL BEND AND RIO GRANDE PLAINS

CITY           SKY/WX    TMP DP  RH WIND       PRES   REMARKS
VICTORIA       PTCLDY    53  42  66 N12       30.00S
*BEEVILLE      PTCLDY    53  42  67 NE8       30.00R
ROCKPORT       PTCLDY    58  43  57 NE15      29.98R
*PORT ARANSAS  PTCLDY    60  46  59 NE22G28   29.97S
*PORT LAVACA   PTCLDY    55  45  70 N13       29.98S
*INGLESIDE     PTCLDY    60  44  54 NE23G30   29.97R
CORPUS CHRISTI PTCLDY    60  42  51 NE16      29.98R
CORPUS NAS     CLEAR     62  52  69 NE26G32   29.97R
*ROBSTOWN      PTCLDY    59  43  56 CALM      29.99R
ALICE          CLEAR     54  38  54 NE9       29.98S
KINGSVILLE NAS CLEAR     57  43  59 N12       29.97S
COTULLA        CLEAR     55  34  45 NE8       30.01S
*FAITH RANCH   CLEAR     57  32  38 NE12      30.00R
LAREDO         CLEAR     58  34  40 NE8       29.98R
$$

TXZ248>255-251000-
DEEP SOUTH TEXAS

CITY           SKY/WX    TMP DP  RH WIND       PRES   REMARKS
BROWNSVILLE    CLEAR     68  63  84 NE9       29.91F
PORT ISABEL    CLEAR     70  58  65 NE14      29.91S
*SOUTH PADRE   NOT AVBL
HARLINGEN      CLEAR     63  58  83 NE10      29.92S
*HEBBRONVILLE  CLEAR     53  33  45 NE5       29.98S
MCALLEN        CLEAR     68  53  58 NE8       29.94R
*WESLACO       CLEAR     62  55  78 NE7       29.93R
FALFURRIAS     CLEAR     53  38  57 NE6       29.97S
EDINBURG       CLEAR     64  55  71 NE8       29.94F
*ZAPATA        CLEAR     58  33  38 CALM      29.97R
$$

TXZ213>215-236>238-242>244-246-247-251-254-255-251000-
CMAN STATIONS

STATION/POSITION TIME  TEMP    WIND        PRES    WAVE
                       AIR SEA DIR/SP/G            HT/PER
                 (UTC) (F)     (DEG/KT/KT) (MB)    (FT/S)
SABINE PASS      0824   59 69   10/ 17/ 22 1016.1
SEA RIM ST PARK  0800   58      10/ 12/ 15 1015.3
NORTH JETTY/GLS  0824   62 66   10/ 16/ 19   N/A
EAGLE POINT      0824   59 67   20/ 10/ 15 1015.6
MORGANS POINT    0824   57 67  360/  3/  6 1015.8
MISSION/ARANSAS  0800   61                 1015.0
PORT O`CONNOR    0824   61      20/ 25/ 28 1014.2
PORT ARANSAS     0800   63 67   20/ 23/ 27 1014.1
MALAQUITE BEACH  0824   65 70   20/ 25/ 29 1014.8
BAFFIN BAY       0824   65 71   20/ 14/ 17 1014.6
PORT ISABEL      0824   72 72   20/  7/ 12 1012.9
$$

GMZ080-GMZ150>470-251000-
OFFSHORE BUOY REPORTS

STATION/POSITION TIME  TEMP    WIND        PRES    WAVE
                       AIR SEA DIR/SP/G            HT/PER
                 (UTC) (F)     (DEG/KT/KT) (MB)    (FT/S)
20 E GALVESTON   0750   62 66  360/ 21/ 27 1014.2    5/ 4
90 E PT ARANSAS  0750   67 69   20/ 21/ 25 1013.4    6/ 5
35 NE PT MANSFLD 0750   71      40/ 23/ 27 1012.2    7/ 5
200 E PT ISABEL  0750   73 74   10/  4/  6 1012.0    4/ 7
$$




USA.gov is the U.S. government's official web portal to all federal, state and local government web resources and services.